Tiempo cada hora Allauch

Hoy, 2 Agosto, Lunes

Tiempo Temperatura Precipitaciones Viento Presión Humedad
00:00 +20°C° 0 mm 7 mps 740 mmHg 55%
01:00 +19°C° 0 mm 6 mps 740 mmHg 59%
02:00 +17°C° 0 mm 6 mps 740 mmHg 63%
03:00 +17°C° 0 mm 6 mps 740 mmHg 67%
04:00 +17°C° 0 mm 6 mps 741 mmHg 65%
05:00 +17°C° 0 mm 6 mps 741 mmHg 64%
06:00 +19°C° 0 mm 5 mps 741 mmHg 62%
07:00 +20°C° 0 mm 6 mps 742 mmHg 54%
08:00 +22°C° 0 mm 6 mps 742 mmHg 45%
09:00 +24°C° 0 mm 7 mps 742 mmHg 37%
10:00 +26°C° 0 mm 7 mps 742 mmHg 35%
11:00 +27°C° 0 mm 7 mps 742 mmHg 34%
12:00 +28°C° 0 mm 7 mps 742 mmHg 32%
13:00 +28°C° 0 mm 7 mps 742 mmHg 32%
14:00 +28°C° 0 mm 6 mps 742 mmHg 32%
15:00 +28°C° 0 mm 6 mps 742 mmHg 32%
16:00 +27°C° 0 mm 6 mps 742 mmHg 35%
17:00 +27°C° 0 mm 5 mps 742 mmHg 39%
18:00 +26°C° 0 mm 5 mps 742 mmHg 42%
19:00 +25°C° 0 mm 4 mps 742 mmHg 49%
20:00 +22°C° 0 mm 4 mps 742 mmHg 55%
21:00 +21°C° 0 mm 3 mps 743 mmHg 62%
22:00 +21°C° 0 mm 3 mps 743 mmHg 66%
23:00 +21°C° 0 mm 2 mps 743 mmHg 69%

Mañana, 3 Agosto, Martes

Tiempo Temperatura Precipitaciones Viento Presión Humedad
00:00 +20°C° 0 mm 2 mps 743 mmHg 73%
01:00 +21°C° 0 mm 1 mps 742 mmHg 75%
02:00 +21°C° 0 mm 1 mps 742 mmHg 77%
03:00 +21°C° 0 mm 1 mps 742 mmHg 80%
04:00 +21°C° 0 mm 1 mps 742 mmHg 75%
05:00 +22°C° 0 mm 1 mps 742 mmHg 71%
06:00 +22°C° 0 mm 1 mps 742 mmHg 66%
07:00 +24°C° 0 mm 1 mps 742 mmHg 56%
08:00 +26°C° 0 mm 1 mps 743 mmHg 46%
09:00 +28°C° 0 mm 2 mps 743 mmHg 36%
10:00 +29°C° 0 mm 2 mps 742 mmHg 36%
11:00 +30°C° 0 mm 3 mps 742 mmHg 35%
12:00 +30°C° 0 mm 4 mps 742 mmHg 35%
13:00 +30°C° 0 mm 4 mps 742 mmHg 35%
14:00 +30°C° 0 mm 4 mps 742 mmHg 35%
15:00 +29°C° 0 mm 4 mps 742 mmHg 36%
16:00 +28°C° 0 mm 4 mps 741 mmHg 39%
17:00 +27°C° 0 mm 3 mps 741 mmHg 42%
18:00 +26°C° 0 mm 3 mps 741 mmHg 46%
19:00 +25°C° 0 mm 2 mps 741 mmHg 49%
20:00 +24°C° 0 mm 2 mps 742 mmHg 52%
21:00 +24°C° 0 mm 2 mps 742 mmHg 55%
22:00 +23°C° 0 mm 2 mps 742 mmHg 56%
23:00 +23°C° 0 mm 2 mps 741 mmHg 58%

Pasado mañana, 4 Agosto, Miércoles

Tiempo Temperatura Precipitaciones Viento Presión Humedad
00:00 +23°C° 0 mm 2 mps 741 mmHg 59%
01:00 +23°C° 0 mm 2 mps 741 mmHg 60%
02:00 +23°C° 0 mm 2 mps 740 mmHg 62%
03:00 +22°C° 0 mm 1 mps 740 mmHg 63%
04:00 +21°C° 0.2 mm 2 mps 740 mmHg 68%
05:00 +20°C° 0.2 mm 3 mps 741 mmHg 72%
06:00 +20°C° 0.2 mm 4 mps 741 mmHg 77%
07:00 +21°C° 0 mm 3 mps 741 mmHg 72%
08:00 +22°C° 0 mm 3 mps 741 mmHg 66%
09:00 +24°C° 0 mm 2 mps 741 mmHg 61%
10:00 +26°C° 0 mm 3 mps 741 mmHg 56%
11:00 +27°C° 0 mm 4 mps 741 mmHg 50%
12:00 +28°C° 0 mm 5 mps 741 mmHg 45%
13:00 +28°C° 0 mm 5 mps 741 mmHg 47%
14:00 +28°C° 0 mm 6 mps 741 mmHg 48%
15:00 +28°C° 0 mm 6 mps 740 mmHg 49%
16:00 +27°C° 0 mm 6 mps 741 mmHg 53%
17:00 +26°C° 0 mm 5 mps 741 mmHg 56%
18:00 +25°C° 0 mm 5 mps 741 mmHg 59%
19:00 +23°C° 0 mm 5 mps 741 mmHg 62%
20:00 +23°C° 0 mm 5 mps 741 mmHg 65%
21:00 +22°C° 0 mm 5 mps 741 mmHg 68%
22:00 +22°C° 0 mm 5 mps 741 mmHg 67%
23:00 +21°C° 0 mm 6 mps 741 mmHg 66%

5 Agosto, Jueves

Tiempo Temperatura Precipitaciones Viento Presión Humedad
00:00 +21°C° 0 mm 6 mps 741 mmHg 64%
01:00 +20°C° 0 mm 6 mps 741 mmHg 66%
02:00 +20°C° 0 mm 6 mps 740 mmHg 69%
03:00 +19°C° 0 mm 5 mps 740 mmHg 71%
04:00 +19°C° 0 mm 6 mps 740 mmHg 68%
05:00 +20°C° 0 mm 6 mps 741 mmHg 66%
06:00 +20°C° 0 mm 6 mps 741 mmHg 63%
07:00 +21°C° 0 mm 6 mps 741 mmHg 56%
08:00 +23°C° 0 mm 6 mps 741 mmHg 50%
09:00 +24°C° 0 mm 7 mps 741 mmHg 43%
10:00 +26°C° 0 mm 7 mps 741 mmHg 40%
11:00 +27°C° 0 mm 8 mps 741 mmHg 38%
12:00 +28°C° 0 mm 8 mps 741 mmHg 36%
13:00 +28°C° 0 mm 8 mps 740 mmHg 35%
14:00 +28°C° 0 mm 8 mps 740 mmHg 35%
15:00 +29°C° 0 mm 8 mps 740 mmHg 35%
16:00 +28°C° 0 mm 7 mps 740 mmHg 38%
17:00 +27°C° 0 mm 7 mps 739 mmHg 41%
18:00 +26°C° 0 mm 7 mps 739 mmHg 44%
19:00 +24°C° 0 mm 6 mps 739 mmHg 50%
20:00 +23°C° 0 mm 5 mps 739 mmHg 56%
21:00 +22°C° 0 mm 4 mps 739 mmHg 63%
22:00 +22°C° 0 mm 4 mps 739 mmHg 61%
23:00 +22°C° 0 mm 4 mps 739 mmHg 59%

6 Agosto, Viernes

Tiempo Temperatura Precipitaciones Viento Presión Humedad
00:00 +22°C° 0 mm 4 mps 739 mmHg 57%
01:00 +21°C° 0 mm 4 mps 739 mmHg 58%
02:00 +21°C° 0 mm 4 mps 739 mmHg 59%
03:00 +21°C° 0 mm 4 mps 739 mmHg 60%
04:00 +21°C° 0 mm 4 mps 739 mmHg 58%
05:00 +21°C° 0 mm 3 mps 739 mmHg 56%
06:00 +22°C° 0 mm 3 mps 740 mmHg 55%
07:00 +25°C° 0 mm 3 mps 740 mmHg 48%
08:00 +27°C° 0 mm 3 mps 740 mmHg 41%
09:00 +29°C° 0 mm 3 mps 740 mmHg 35%
10:00 +29°C° 0 mm 4 mps 740 mmHg 35%
11:00 +30°C° 0 mm 4 mps 740 mmHg 36%
12:00 +30°C° 0 mm 5 mps 740 mmHg 36%
13:00 +30°C° 0 mm 5 mps 739 mmHg 39%
14:00 +29°C° 0 mm 5 mps 739 mmHg 41%
15:00 +29°C° 0 mm 5 mps 739 mmHg 44%
16:00 +28°C° 0 mm 4 mps 739 mmHg 47%
17:00 +27°C° 0 mm 3 mps 739 mmHg 50%
18:00 +26°C° 0 mm 3 mps 739 mmHg 53%
19:00 +25°C° 0 mm 2 mps 739 mmHg 56%
20:00 +24°C° 0 mm 2 mps 739 mmHg 60%
21:00 +24°C° 0 mm 1 mps 739 mmHg 63%
22:00 +23°C° 0 mm 1 mps 739 mmHg 63%
23:00 +23°C° 0 mm 1 mps 739 mmHg 64%

7 Agosto, Sábado

Tiempo Temperatura Precipitaciones Viento Presión Humedad
00:00 +23°C° 0 mm 1 mps 738 mmHg 64%
01:00 +23°C° 0 mm 1 mps 738 mmHg 65%
02:00 +23°C° 0 mm 2 mps 738 mmHg 66%
03:00 +21°C° 0 mm 2 mps 738 mmHg 67%
04:00 +22°C° 0 mm 3 mps 738 mmHg 68%
05:00 +22°C° 0 mm 4 mps 738 mmHg 68%
06:00 +22°C° 0 mm 4 mps 738 mmHg 69%
07:00 +25°C° 0 mm 5 mps 738 mmHg 61%
08:00 +27°C° 0 mm 6 mps 738 mmHg 54%
09:00 +29°C° 0 mm 7 mps 738 mmHg 47%
10:00 +29°C° 0 mm 7 mps 738 mmHg 44%
11:00 +30°C° 0 mm 7 mps 738 mmHg 42%
12:00 +30°C° 0 mm 7 mps 738 mmHg 40%
13:00 +30°C° 0 mm 6 mps 738 mmHg 42%
14:00 +30°C° 0 mm 6 mps 738 mmHg 43%
15:00 +29°C° 0 mm 5 mps 738 mmHg 45%
16:00 +28°C° 0 mm 4 mps 738 mmHg 51%
17:00 +27°C° 0 mm 4 mps 739 mmHg 58%
18:00 +26°C° 0 mm 3 mps 739 mmHg 65%
19:00 +25°C° 0 mm 3 mps 739 mmHg 69%
20:00 +23°C° 0 mm 4 mps 740 mmHg 73%
21:00 +22°C° 0 mm 5 mps 741 mmHg 77%
22:00 +22°C° 0 mm 5 mps 741 mmHg 76%
23:00 +21°C° 0 mm 6 mps 741 mmHg 75%
Mostrar más

Necesitamos Su Consentimiento

Meteoprog y nuestros Proveedores de Servicios pueden almacenar y acceder a sus datos personales como cookies, identificadores de dispositivo u otras tecnologías similares de su dispositivo y procesar dichos datos para personalizar contenido y anuncios, además de ofrecer funciones de redes sociales y analizar el tráfico.

  • Almacenar y/o acceder a información en su dispositivo

    Se puede almacenar o acceder a cookies, identificadores de dispositivo u otra información de su dispositivo para los fines anteriormente indicados.

  • Anuncios y contenido personalizados, medición de anuncios y contenido, percepciones del público, y desarrollo de productos

    Los anuncios y el contenido pueden personalizarse en base a su perfil. Se pueden añadir más datos para personalizar mejor los anuncios y contenidos. Se puede medir el rendimiento de los anuncios y contenidos. Se puede obtener la percepción sobre el público que ha visto los anuncios y contenidos. Dichos datos pueden usarse para desarrollar o mejorar la experiencia del usuario, sistemas y software.

Al hacer clic en ‘Estoy De Acuerdo’ usted permitirá el uso de las cookies, identificadores de dispositivo, balizas web u otras tecnologías similares indicadas. Su configuración puede cambiarse desde el navegador de su dispositivo.

Para ciertos fines, los intereses legítimos pueden ser considerados por encima del consentimiento. Puede leer más sobre ello en nuestra Política de Privacidad y Cookies.